This demonstration page uses our WeatherBlox Daily Observations layout. Learn more.

Hourly Observations for November 22, 2020

Temp ( °F °C ) Dew Point ( °F °C ) Humidity (%) Winds ( mph kmh ) Pressure ( in mb ) Visibility ( mi km ) Precip ( " mm )
12:15 am 00:15 Cloudy 55 13 41 5 59 59 NE 7 11 30.4 1030 10 16.0934 0 0
12:35 am 00:35 Cloudy 54 12 41 5 63 63 NNE 8 13 30.4 1030 10 16.0934 0 0
12:55 am 00:55 Cloudy 54 12 41 5 63 63 NE 6 9 30.4 1030 10 16.0934 0 0
1:15 am 01:15 Cloudy 54 12 41 5 63 63 NE 7 11 30.39 1029 10 16.0934 0 0
1:35 am 01:35 Cloudy 54 12 41 5 63 63 NE 3 6 30.4 1030 10 16.0934 0 0
1:55 am 01:55 Cloudy 54 12 43 6 67 67 NNE 3 6 30.4 1030 10 16.0934 0 0
2:15 am 02:15 Cloudy 54 12 43 6 67 67 NNE 3 6 30.4 1030 10 16.0934 0 0
2:35 am 02:35 Cloudy 52 11 43 6 72 72 NE 3 6 30.4 1030 10 16.0934 0 0
2:55 am 02:55 Cloudy 52 11 43 6 72 72 NNE 3 6 30.4 1030 10 16.0934 0 0
3:15 am 03:15 Cloudy 52 11 43 6 72 72 NNE 5 7 30.4 1030 10 16.0934 0 0
3:35 am 03:35 Cloudy 52 11 43 6 72 72 NNE 5 7 30.4 1030 10 16.0934 0 0
3:55 am 03:55 Cloudy 52 11 43 6 72 72 NNE 5 7 30.39 1029 10 16.0934 0 0
4:15 am 04:15 Cloudy 52 11 43 6 72 72 NE 3 6 30.39 1029 10 16.0934 0 0
4:35 am 04:35 Cloudy 52 11 43 6 72 72 NE 5 7 30.38 1029 10 16.0934 0 0
4:55 am 04:55 Cloudy 52 11 43 6 72 72 NE 3 6 30.38 1029 10 16.0934 0 0
5:15 am 05:15 Cloudy 50 10 43 6 76 76 ENE 7 11 30.39 1029 10 16.0934 0 0
5:35 am 05:35 Cloudy 50 10 43 6 76 76 ENE 6 9 30.39 1029 10 16.0934 0 0
5:55 am 05:55 Cloudy 52 11 43 6 72 72 E 8 13 30.38 1029 10 16.0934 0 0
6:15 am 06:15 Cloudy 52 11 41 5 67 67 E 8 13 30.38 1029 10 16.0934 0 0
6:35 am 06:35 Cloudy 52 11 41 5 67 67 E 8 13 30.38 1029 10 16.0934 0 0
6:55 am 06:55 Cloudy 50 10 39 4 67 67 E 3 6 30.4 1029 10 16.0934 0 0
7:15 am 07:15 Cloudy 50 10 39 4 67 67 ESE 9 15 30.4 1029 10 16.0934 0 0
7:35 am 07:35 Cloudy 50 10 37 3 62 62 ESE 7 11 30.4 1029 10 16.0934 0 0
7:55 am 07:55 Cloudy 50 10 37 3 62 62 ESE 8 13 30.4 1029 10 16.0934 0 0
8:15 am 08:15 Cloudy 50 10 37 3 62 62 ESE 7 11 30.41 1030 10 16.0934 0 0
8:35 am 08:35 Cloudy 50 10 37 3 62 62 E 3 6 30.41 1030 10 16.0934 0 0
8:55 am 08:55 Cloudy 50 10 39 4 67 67 ESE 6 9 30.41 1030 10 16.0934 0 0
9:15 am 09:15 Cloudy 50 10 39 4 67 67 E 3 6 30.4 1029 10 16.0934 0 0
9:35 am 09:35 Cloudy 50 10 39 4 67 67 ESE 8 13 30.4 1029 10 16.0934 0 0
9:55 am 09:55 Cloudy 50 10 41 5 71 71 E 6 9 30.4 1029 10 16.0934 0 0
10:15 am 10:15 Cloudy 52 11 41 5 67 67 ESE 9 15 30.38 1029 10 16.0934 0 0
10:35 am 10:35 Cloudy 52 11 41 5 67 67 SE 6 9 30.38 1029 10 16.0934 0 0
10:55 am 10:55 Cloudy 52 11 41 5 67 67 ESE 6 9 30.37 1029 10 16.0934 0 0
11:15 am 11:15 Cloudy 52 11 41 5 67 67 E 6 9 30.35 1028 10 16.0934 0 0
11:35 am 11:35 Cloudy 52 11 43 6 72 72 E 7 11 30.33 1027 10 16.0934 0 0
11:55 am 11:55 Cloudy 54 12 43 6 67 67 ESE 5 7 30.32 1027 10 16.0934 0 0
12:15 pm 12:15 Cloudy 54 12 43 6 67 67 E 5 7 30.3 1026 10 16.0934 0 0
12:35 pm 12:35 Cloudy 54 12 43 6 67 67 ESE 5 7 30.28 1026 10 16.0934 0 0
12:55 pm 12:55 Cloudy 54 12 45 7 72 72 SE 7 11 30.27 1025 10 16.0934 0 0
1:15 pm 13:15 Cloudy 54 12 45 7 72 72 ESE 8 13 30.26 1025 10 16.0934 0 0
1:35 pm 13:35 Cloudy 55 13 45 7 67 67 ESE 7 11 30.25 1024 10 16.0934 0 0
1:55 pm 13:55 Cloudy 55 13 45 7 67 67 SE 8 13 30.24 1024 10 16.0934 0 0
2:15 pm 14:15 Cloudy 55 13 45 7 67 67 ESE 7 11 30.23 1024 10 16.0934 0 0
2:35 pm 14:35 Mostly Cloudy 55 13 46 8 72 72 SE 9 15 30.21 1023 10 16.0934 0 0
2:55 pm 14:55 Cloudy 55 13 46 8 72 72 ESE 7 11 30.2 1023 10 16.0934 0 0
3:15 pm 15:15 Cloudy 55 13 46 8 72 72 E 6 9 30.2 1023 10 16.0934 0 0
3:35 pm 15:35 Cloudy 55 13 46 8 72 72 ESE 7 11 30.19 1022 10 16.0934 0 0
3:55 pm 15:55 Cloudy 55 13 46 8 72 72 SE 6 9 30.19 1022 10 16.0934 0 0
4:15 pm 16:15 Cloudy 55 13 46 8 72 72 SE 5 7 30.18 1022 10 16.0934 0 0
4:35 pm 16:35 Cloudy 55 13 48 9 77 77 SE 7 11 30.17 1022 10 16.0934 0 0
4:55 pm 16:55 Cloudy 55 13 48 9 77 77 SE 5 7 30.17 1022 10 16.0934 0 0
5:15 pm 17:15 Cloudy 55 13 50 10 82 82 ESE 3 6 30.17 1022 10 16.0934 0 0
5:35 pm 17:35 Cloudy 54 12 48 9 82 82 NE 5 7 30.17 1022 10 16.0934 0 0
5:55 pm 17:55 Cloudy 54 12 48 9 82 82 ENE 6 9 30.16 1021 10 16.0934 0 0
6:15 pm 18:15 Cloudy 54 12 48 9 82 82 ESE 6 9 30.15 1021 10 16.0934 0 0
6:35 pm 18:35 Cloudy 54 12 48 9 82 82 E 7 11 30.15 1021 10 16.0934 0 0
6:55 pm 18:55 Cloudy 54 12 48 9 82 82 ENE 3 6 30.14 1021 10 16.0934 0 0
7:15 pm 19:15 Cloudy 52 11 46 8 82 82 ENE 5 7 30.13 1020 10 16.0934 0 0
7:35 pm 19:35 Cloudy 52 11 48 9 88 88 ENE 5 7 30.13 1020 10 16.0934 0 0
7:55 pm 19:55 Cloudy 54 12 48 9 82 82 NE 3 6 30.13 1020 10 16.0934 0 0
8:15 pm 20:15 Cloudy 52 11 48 9 88 88 N 5 7 30.13 1020 10 16.0934 0 0
8:35 pm 20:35 Cloudy 54 12 48 9 82 82 E 6 9 30.11 1020 10 16.0934 0 0
8:55 pm 20:55 Cloudy 52 11 48 9 88 88 ESE 3 6 30.1 1019 10 16.0934 0 0
9:15 pm 21:15 Cloudy 52 11 48 9 88 88 Calm 30.09 1019 10 16.0934 0 0
9:35 pm 21:35 Cloudy 52 11 48 9 88 88 SE 3 6 30.08 1019 10 16.0934 0 0
9:55 pm 21:55 Cloudy 52 11 48 9 88 88 SE 3 6 30.07 1018 10 16.0934 0 0
10:15 pm 22:15 Cloudy 52 11 48 9 88 88 Calm 30.06 1018 10 16.0934 0 0
10:35 pm 22:35 Cloudy 52 11 50 10 94 94 S 6 9 30.05 1018 10 16.0934 0 0
10:55 pm 22:55 Cloudy 54 12 50 10 88 88 Calm 30.04 1017 10 16.0934 0 0
11:15 pm 23:15 Cloudy 52 11 50 10 94 94 S 6 9 30.03 1017 10 16.0934 0 0
11:35 pm 23:35 Cloudy 52 11 50 10 94 94 SSW 3 6 30.02 1017 10 16.0934 0 0
11:55 pm 23:55 Cloudy 52 11 50 10 94 94 S 6 9 30.01 1016 10 16.0934 0 0

Powered by AerisWeather